Simultaneous Nadir Overpasses (SNOs) Predictions

Prediction of SNOs between AQUA and GOES-15 Satellite Orbit:

Table of predicted SNOs for the next 14.0 days since TLE Epoch: 11/1/2019
Index Date Time (AQUA) AQUA Lat,Lon GOES-15 Lat,Lon Distance(km) Time Diff (sec)
1 11/01/2019 22:22:17 -0.84,-131.61 -0.13,-128.42 363.45 80
2 11/03/2019 22:10:05 -0.20,-128.65 -0.13,-128.44 24.80 80
3 11/05/2019 21:57:53 0.44,-125.69 -0.13,-128.46 313.90 80
4 11/06/2019 10:19:10 0.58,-130.87 0.11,-128.51 266.81 80
5 11/08/2019 10:06:57 -0.00,-127.90 0.11,-128.53 71.56 80
6 11/10/2019 09:54:45 -0.65,-124.94 0.11,-128.54 409.59 80
7 11/10/2019 22:16:09 -0.41,-130.14 -0.09,-128.49 186.43 80
8 11/12/2019 22:03:56 0.18,-127.17 -0.10,-128.50 150.98 80
9 11/13/2019 10:25:12 0.91,-132.33 0.08,-128.55 430.14 80
10 11/14/2019 21:51:43 0.79,-124.20 -0.10,-128.50 487.61 80
11 11/15/2019 10:13:00 0.25,-129.37 0.08,-128.55 93.77 80




NCC Satellite Simultaneous Nadir Overpasses (SNOs) Prediction Service
